CW8285 Weather Reports


Display with metric or nautical units.
time (UTC)temp
F
wind
direction
speed
MPH
gust
MPH
rain 1hr
in
rain 24hr
in
rain mn
in
humidity
%
barometer
mb
20260906035738 65 328 0.0 0.0 0.00 0.33 0.33 99 1020.0
20260906035234 65 327 0.0 0.0 0.00 0.33 0.33 99 1020.4
20260906034734 66 327 0.0 0.0 0.00 0.33 0.33 99 1020.5
20260906034229 66 327 0.0 0.0 0.00 0.33 0.33 99 1020.5
20260906033724 66 327 0.0 0.0 0.00 0.33 0.33 99 1020.6
20260906033224 66 327 0.0 0.0 0.00 0.33 0.33 99 1020.7
20260906032721 66 327 0.0 0.0 0.00 0.33 0.33 99 1020.8
20260906032221 66 327 0.0 0.0 0.00 0.33 0.33 99 1020.9
20260906031716 66 327 0.0 0.0 0.00 0.33 0.33 99 1020.8
20260906031211 66 327 0.0 0.0 0.00 0.33 0.33 99 1021.2
20260906030706 66 327 0.0 0.0 0.00 0.33 0.33 99 1020.9
20260906030201 66 327 0.0 0.0 0.00 0.33 0.33 99 1020.9
20260906025700 66 327 0.0 0.0 0.00 0.33 0.33 99 1020.6
20260906025159 66 327 0.0 0.0 0.00 0.33 0.33 99 1020.6
20260906024654 66 327 0.0 0.0 0.00 0.33 0.33 99 1020.7
20260906024153 66 327 0.0 0.0 0.00 0.33 0.33 99 1020.6
20260906023649 66 327 0.0 0.0 0.00 0.33 0.33 99 1020.6
20260906023149 66 327 0.0 0.0 0.00 0.33 0.33 99 1020.7
20260906022644 66 327 0.0 0.0 0.00 0.33 0.33 99 1020.3
20260906022140 66 327 0.0 0.0 0.00 0.33 0.33 98 1020.3
20260906021636 66 327 0.0 0.0 0.00 0.33 0.33 98 1020.3
20260906021134 66 327 0.0 0.0 0.00 0.33 0.33 98 1020.0
20260906020629 66 327 0.0 0.0 0.00 0.33 0.33 98 1020.3
20260906020124 67 327 0.0 0.0 0.00 0.33 0.33 98 1020.0
20260906015619 67 326 0.0 0.0 0.00 0.33 0.33 98 1019.9
20260906015117 67 326 0.0 0.0 0.00 0.33 0.33 98 1019.9
20260906014612 67 327 0.0 0.0 0.00 0.33 0.33 98 1020.0
20260906014108 67 327 0.0 0.0 0.00 0.33 0.33 98 1020.2
20260906013603 67 327 0.0 0.0 0.00 0.33 0.33 98 1020.0
20260906013058 67 327 0.0 0.0 0.00 0.33 0.33 98 1020.0
20260906012553 67 327 0.0 0.0 0.00 0.33 0.33 98 1019.9
20260906012053 67 327 0.0 0.0 0.00 0.33 0.33 98 1019.9
20260906011549 68 327 0.0 0.0 0.00 0.33 0.33 98 1020.0
20260906011048 68 327 0.0 0.0 0.00 0.33 0.33 98 1020.0
20260906010544 68 327 0.0 0.0 0.00 0.33 0.33 98 1020.0
20260906010040 68 327 0.0 0.0 0.00 0.33 0.33 98 1019.9
20260906005539 68 327 0.0 0.0 0.00 0.33 0.33 97 1019.9
20260906005038 68 327 0.0 0.0 0.00 0.33 0.33 97 1019.9
20260906004538 68 327 0.0 0.0 0.00 0.33 0.33 97 1019.8
20260906004033 68 328 0.0 0.0 0.00 0.33 0.33 97 1019.8
20260906003529 68 328 0.0 0.0 0.00 0.33 0.33 97 1019.7
20260906003025 68 327 0.0 0.0 0.00 0.33 0.33 97 1019.7
20260906002524 68 328 0.0 0.0 0.00 0.33 0.33 97 1019.7
20260906002019 69 328 0.0 0.0 0.00 0.33 0.33 97 1019.6
20260906001515 69 328 0.0 0.0 0.00 0.33 0.33 97 1019.4
20260906001009 69 328 0.0 0.0 0.00 0.33 0.33 97 1019.5
20260906000506 69 328 0.0 0.0 0.00 0.33 0.33 97 1019.4
20260906000000 69 328 0.0 0.0 0.00 0.33 0.33 96 1019.5
20260905235459 69 328 0.0 0.0 0.00 0.33 0.33 96 1019.5
20260905234954 70 328 0.0 0.0 0.00 0.33 0.33 96 1019.3
20260905234451 70 328 0.0 0.0 0.00 0.33 0.33 96 1019.4
20260905233949 70 328 0.0 0.0 0.00 0.33 0.33 96 1019.3
20260905233445 70 328 0.0 0.0 0.00 0.33 0.33 96 1019.3
20260905232944 70 328 0.0 0.0 0.00 0.33 0.33 96 1019.2
20260905232440 71 342 0.0 0.0 0.00 0.33 0.33 96 1019.2
20260905231936 71 342 0.0 0.0 0.00 0.33 0.33 96 1019.2
20260905231432 71 342 0.0 1.0 0.00 0.33 0.33 95 1019.1
20260905230928 71 328 1.0 1.0 0.00 0.33 0.33 95 1019.1
20260905230426 71 328 0.0 0.0 0.00 0.33 0.33 95 1018.9
20260905225925 71 328 0.0 0.0 0.00 0.33 0.33 95 1019.0
20260905225420 71 328 0.0 0.0 0.00 0.33 0.33 95 1019.1
20260905224915 71 328 0.0 0.0 0.00 0.33 0.33 94 1019.0
20260905224411 72 328 1.0 1.0 0.00 0.33 0.33 94 1019.1
20260905223905 72 328 1.0 1.0 0.00 0.33 0.33 94 1019.1
20260905223403 72 328 1.0 1.0 0.00 0.33 0.33 93 1019.0
20260905222903 72 328 0.0 1.0 0.00 0.33 0.33 93 1018.9
20260905222402 73 328 0.0 0.0 0.00 0.33 0.33 93 1018.9
20260905221858 73 328 0.0 0.0 0.00 0.33 0.33 92 1019.1
20260905221355 73 328 0.0 1.0 0.00 0.33 0.33 91 1019.4
20260905220850 73 328 0.0 0.0 0.00 0.33 0.33 89 1019.2
20260905220346 73 328 0.0 1.0 0.00 0.33 0.33 89 1019.3
20260905215845 73 328 0.0 0.0 0.00 0.33 0.33 89 1019.2
20260905215341 73 328 0.0 0.0 0.00 0.33 0.33 89 1019.0
20260905214838 73 328 0.0 0.0 0.00 0.33 0.33 89 1019.5
20260905214332 73 328 0.0 0.0 0.00 0.33 0.33 90 1019.4
20260905213827 73 328 0.0 0.0 0.00 0.33 0.33 90 1019.3
20260905213323 74 328 0.0 0.0 0.00 0.33 0.33 91 1019.2
20260905212818 73 328 0.0 0.0 0.00 0.33 0.33 92 1019.4
20260905212313 73 328 0.0 0.0 0.00 0.33 0.33 92 1019.2
20260905211813 73 333 0.0 0.0 0.00 0.33 0.33 92 1019.7
20260905211308 73 333 0.0 0.0 0.00 0.33 0.33 93 1019.5
20260905210804 73 333 0.0 0.0 0.00 0.33 0.33 93 1019.7
20260905210304 73 333 0.0 0.0 0.00 0.33 0.33 94 1019.7
20260905205802 72 333 1.0 1.0 0.00 0.33 0.33 94 1019.9
20260905205257 72 333 0.0 1.0 0.00 0.33 0.33 94 1019.9
20260905204756 73 331 0.0 2.0 0.00 0.33 0.33 94 1019.8
20260905204253 73 322 0.0 0.0 0.00 0.33 0.33 94 1019.9
20260905203752 72 321 0.0 0.0 0.00 0.33 0.33 95 1019.7
20260905203247 72 331 0.0 0.0 0.00 0.33 0.33 96 1019.8
20260905202743 71 328 0.0 0.0 0.00 0.33 0.33 96 1019.7
20260905202238 71 333 0.0 0.0 0.00 0.33 0.33 96 1020.2
20260905201733 70 333 0.0 0.0 0.00 0.33 0.33 96 1020.3
20260905201228 70 333 0.0 1.0 0.00 0.33 0.33 97 1020.2
20260905200723 70 328 1.0 2.0 0.00 0.33 0.33 96 1020.3
20260905200219 70 333 1.0 2.0 0.00 0.33 0.33 96 1020.5
20260905195718 70 333 1.0 1.0 0.00 0.33 0.33 97 1020.3
20260905195218 70 328 0.0 0.0 0.00 0.33 0.33 97 1020.6
20260905194714 70 328 0.0 0.0 0.00 0.33 0.33 97 1020.5
20260905194213 70 328 0.0 1.0 0.00 0.33 0.33 97 1020.5
20260905193707 70 333 1.0 1.0 0.00 0.33 0.33 97 1020.4
20260905193202 69 333 0.0 0.0 0.00 0.33 0.33 96 1020.3
20260905192658 70 333 0.0 0.0 0.00 0.33 0.33 97 1020.2
20260905192154 69 333 0.0 0.0 0.00 0.33 0.33 97 1020.4
20260905191654 69 322 0.0 0.0 0.00 0.33 0.33 96 1020.4
20260905191151 69 322 0.0 0.0 0.00 0.33 0.33 96 1020.4
20260905190650 69 322 0.0 0.0 0.00 0.33 0.33 96 1020.7
20260905190149 68 322 0.0 0.0 0.00 0.33 0.33 96 1020.4
20260905185649 68 321 0.0 0.0 0.00 0.33 0.33 96 1020.5
20260905185144 68 331 0.0 0.0 0.00 0.33 0.33 96 1020.6
20260905184643 68 331 0.0 0.0 0.00 0.33 0.33 95 1020.9
20260905184142 68 331 0.0 0.0 0.00 0.33 0.33 95 1021.2
20260905183641 68 337 1.0 1.0 0.00 0.33 0.33 94 1021.2
20260905183136 69 332 1.0 3.0 0.00 0.33 0.33 95 1020.8
20260905182636 69 332 0.0 0.0 0.07 0.33 0.33 94 1020.9
20260905182136 69 332 0.0 0.0 0.07 0.33 0.33 94 1021.3
20260905181631 69 332 0.0 1.0 0.05 0.32 0.32 93 1021.7
20260905181130 70 322 0.0 2.0 0.17 0.32 0.32 92 1021.9
20260905180625 71 324 0.0 1.0 0.35 0.31 0.31 91 1021.7
20260905180121 73 313 1.0 1.0 1.39 0.29 0.29 88 1021.8
20260905175620 75 332 2.0 2.0 1.37 0.23 0.23 86 1022.1
20260905175115 79 327 1.0 3.0 0.19 0.03 0.03 82 1021.6
20260905174611 80 336 0.0 1.0 0.00 0.00 0.00 79 1020.9
20260905174106 80 320 1.0 2.0 0.00 0.00 0.00 78 1020.7
20260905173602 80 325 0.0 0.0 0.00 0.00 0.00 77 1020.8
20260905173058 81 323 0.0 1.0 0.00 0.00 0.00 77 1020.5
20260905172556 82 315 0.0 1.0 0.00 0.00 0.00 75 1021.1
20260905172051 83 318 0.0 0.0 0.00 0.00 0.00 71 1021.1
20260905171548 85 318 0.0 0.0 0.00 0.00 0.00 67 1021.2
20260905171044 86 317 0.0 1.0 0.00 0.00 0.00 65 1021.1
20260905170540 86 318 0.0 0.0 0.00 0.00 0.00 65 1020.9
20260905170035 86 318 0.0 2.0 0.00 0.00 0.00 66 1020.9
20260905165530 87 317 1.0 1.0 0.00 0.00 0.00 66 1021.1
20260905165026 87 318 0.0 0.0 0.00 0.00 0.00 63 1020.8
20260905164525 88 318 0.0 1.0 0.00 0.00 0.00 64 1021.2
20260905164020 88 318 0.0 1.0 0.00 0.00 0.00 61 1021.1
20260905163516 87 318 0.0 0.0 0.00 0.00 0.00 64 1021.1
20260905163012 87 317 1.0 2.0 0.00 0.00 0.00 59 1021.2
20260905162508 87 318 0.0 1.0 0.00 0.00 0.00 60 1021.6
20260905162002 88 333 1.0 2.0 0.00 0.00 0.00 59 1021.8
20260905161502 88 337 2.0 3.0 0.00 0.00 0.00 59 1021.8
20260905161000 88 318 0.0 1.0 0.00 0.00 0.00 62 1021.5
20260905160454 88 317 1.0 1.0 0.00 0.00 0.00 66 1021.8
20260905155953 87 318 0.0 1.0 0.00 0.00 0.00 64 1021.8
20260905155448 86 318 1.0 1.0 0.00 0.00 0.00 66 1021.8
20260905154947 85 318 0.0 1.0 0.00 0.00 0.00 69 1021.8
20260905154442 85 313 0.0 2.0 0.00 0.00 0.00 68 1021.9
20260905153938 85 313 0.0 1.0 0.00 0.00 0.00 71 1021.7
20260905153434 85 312 1.0 2.0 0.00 0.00 0.00 71 1021.7
20260905152933 84 318 0.0 0.0 0.00 0.00 0.00 71 1021.7
20260905152433 85 318 1.0 1.0 0.00 0.00 0.00 72 1021.6
20260905151928 84 318 1.0 1.0 0.00 0.00 0.00 70 1021.7
20260905151424 84 318 0.0 0.0 0.00 0.00 0.00 72 1021.6
20260905150924 83 318 0.0 1.0 0.00 0.00 0.00 74 1021.7
20260905150424 83 318 0.0 2.0 0.00 0.00 0.00 75 1021.7
20260905145920 82 316 0.0 0.0 0.00 0.00 0.00 78 1021.5
20260905145416 81 312 0.0 2.0 0.00 0.00 0.00 77 1021.6
20260905144915 81 336 0.0 1.0 0.00 0.00 0.00 80 1021.5
20260905144411 81 320 1.0 1.0 0.00 0.00 0.00 82 1021.7
20260905143909 80 325 1.0 1.0 0.00 0.00 0.00 85 1021.7
20260905143404 79 325 0.0 1.0 0.00 0.00 0.00 88 1021.7
20260905142903 78 324 0.0 0.0 0.00 0.00 0.00 90 1021.8
20260905142402 78 324 0.0 0.0 0.00 0.00 0.00 91 1021.9
20260905141858 77 324 0.0 0.0 0.00 0.00 0.00 93 1021.8
20260905141353 77 324 0.0 1.0 0.00 0.00 0.00 93 1021.8
20260905140849 76 319 0.0 0.0 0.00 0.00 0.00 94 1021.7
20260905140349 76 319 0.0 0.0 0.00 0.00 0.00 95 1022.0
20260905135848 75 320 0.0 1.0 0.00 0.00 0.00 95 1021.9
20260905135344 74 323 1.0 1.0 0.00 0.00 0.00 96 1021.9
20260905134839 74 317 1.0 1.0 0.00 0.00 0.00 97 1022.0
20260905134337 73 319 0.0 0.0 0.00 0.00 0.00 98 1021.9
20260905133832 72 319 0.0 0.0 0.00 0.00 0.00 99 1021.9
20260905133328 71 319 1.0 1.0 0.00 0.00 0.00 99 1021.9
20260905132827 71 324 0.0 0.0 0.00 0.00 0.00 99 1021.9
20260905132323 70 324 0.0 0.0 0.00 0.00 0.00 99 1022.0
20260905131822 70 324 0.0 0.0 0.00 0.00 0.00 99 1022.0
20260905131318 70 324 0.0 0.0 0.00 0.00 0.00 99 1022.1
20260905130813 70 324 0.0 0.0 0.00 0.00 0.00 99 1022.2
20260905130312 69 324 0.0 0.0 0.00 0.00 0.00 99 1022.4
20260905125808 69 324 0.0 0.0 0.00 0.00 0.00 99 1022.1
20260905125305 69 324 0.0 0.0 0.00 0.00 0.00 99 1022.1
20260905124759 68 325 0.0 0.0 0.00 0.00 0.00 99 1022.1
20260905124254 68 325 0.0 0.0 0.00 0.00 0.00 99 1022.1
20260905123749 68 325 0.0 0.0 0.00 0.00 0.00 99 1022.1
20260905123246 68 325 0.0 0.0 0.00 0.00 0.00 99 1021.9
20260905122740 67 325 1.0 1.0 0.00 0.00 0.00 99 1022.1
20260905122234 67 325 1.0 1.0 0.00 0.00 0.00 99 1022.1
20260905121729 67 325 1.0 2.0 0.00 0.00 0.00 99 1021.8
20260905121226 66 325 0.0 0.0 0.00 0.00 0.00 99 1021.9
20260905120724 66 324 0.0 0.0 0.00 0.00 0.00 99 1021.8
20260905120219 65 325 0.0 0.0 0.00 0.00 0.00 99 1021.6
20260905115719 66 324 0.0 0.0 0.00 0.00 0.00 99 1021.8
20260905115214 66 325 0.0 0.0 0.00 0.00 0.00 99 1021.7
20260905114708 66 324 0.0 0.0 0.00 0.00 0.00 99 1021.7
20260905114206 66 324 0.0 0.0 0.00 0.00 0.00 99 1021.8
20260905113701 66 324 0.0 0.0 0.00 0.00 0.00 99 1021.7
20260905113157 66 324 0.0 0.0 0.00 0.00 0.00 99 1021.5
20260905112656 65 324 0.0 1.0 0.00 0.00 0.00 99 1021.7
20260905112152 65 324 0.0 0.0 0.00 0.00 0.00 99 1021.5
20260905111651 65 324 0.0 0.0 0.00 0.00 0.00 99 1021.5
20260905111151 65 324 0.0 0.0 0.00 0.00 0.00 99 1021.2
20260905110650 65 324 0.0 0.0 0.00 0.00 0.00 99 1021.2
20260905110145 65 325 0.0 0.0 0.00 0.00 0.00 99 1021.1
20260905105640 65 325 0.0 0.0 0.00 0.00 0.00 99 1021.2
20260905105139 65 325 0.0 0.0 0.00 0.00 0.00 99 1021.1
20260905104634 65 325 0.0 0.0 0.00 0.00 0.00 99 1020.9
20260905104130 65 325 0.0 0.0 0.00 0.00 0.00 99 1021.0
20260905103625 65 325 0.0 0.0 0.00 0.00 0.00 99 1020.9
20260905103121 65 325 0.0 0.0 0.00 0.00 0.00 99 1020.9
20260905102617 65 325 0.0 0.0 0.00 0.00 0.00 99 1020.9
20260905102113 65 325 0.0 0.0 0.00 0.00 0.00 99 1020.8
20260905101611 65 325 0.0 0.0 0.00 0.00 0.00 99 1020.8
20260905101110 65 325 0.0 0.0 0.00 0.00 0.00 99 1020.9
20260905100607 65 325 0.0 0.0 0.00 0.00 0.00 99 1020.6
20260905095600 65 325 0.0 0.0 0.00 0.00 0.00 99 1020.6
20260905095056 65 325 0.0 0.0 0.00 0.00 0.00 99 1020.8
20260905094551 66 325 0.0 0.0 0.00 0.00 0.00 99 1020.9
20260905094051 66 325 0.0 0.0 0.00 0.00 0.00 99 1020.7
20260905093550 65 325 0.0 0.0 0.00 0.00 0.00 99 1020.8
20260905093047 65 325 0.0 0.0 0.00 0.00 0.00 99 1020.8
20260905092546 66 325 0.0 0.0 0.00 0.00 0.00 99 1020.9
20260905092043 66 325 0.0 0.0 0.00 0.00 0.00 99 1021.0
20260905091541 66 325 0.0 0.0 0.00 0.00 0.00 99 1020.8
20260905091036 66 325 0.0 0.0 0.00 0.00 0.00 99 1021.0
20260905090530 66 325 0.0 0.0 0.00 0.00 0.00 99 1021.0
20260905090026 66 325 0.0 0.0 0.00 0.00 0.00 99 1021.1
20260905085524 66 325 0.0 0.0 0.00 0.00 0.00 99 1020.9
20260905085021 66 325 0.0 0.0 0.00 0.00 0.00 99 1021.0
20260905084520 66 325 0.0 0.0 0.00 0.00 0.00 99 1021.1
20260905084015 66 325 0.0 0.0 0.00 0.00 0.00 99 1021.1
20260905083510 66 325 0.0 0.0 0.00 0.00 0.00 99 1021.3
20260905083007 66 325 0.0 0.0 0.00 0.00 0.00 99 1021.2
20260905082501 66 325 0.0 0.0 0.00 0.00 0.00 99 1021.6
20260905081951 66 325 0.0 0.0 0.00 0.00 0.00 99 1021.3
20260905081446 66 325 0.0 0.0 0.00 0.00 0.00 99 1021.3
20260905080945 66 325 0.0 0.0 0.00 0.00 0.00 99 1021.5
20260905080440 66 325 0.0 0.0 0.00 0.00 0.00 99 1021.6
20260905075939 66 325 0.0 0.0 0.00 0.00 0.00 99 1021.7
20260905075433 66 325 0.0 0.0 0.00 0.00 0.00 99 1021.7
20260905074932 67 325 0.0 0.0 0.00 0.00 0.00 99 1021.6
20260905074428 67 325 0.0 0.0 0.00 0.00 0.00 99 1021.6
20260905073924 67 325 0.0 0.0 0.00 0.00 0.00 99 1021.6
20260905073419 67 325 0.0 0.0 0.00 0.00 0.00 99 1021.6
20260905072914 67 325 0.0 0.0 0.00 0.00 0.00 99 1021.6
20260905072409 67 325 0.0 0.0 0.00 0.00 0.00 99 1021.3
20260905071905 67 325 0.0 0.0 0.00 0.00 0.00 99 1021.9
20260905071402 67 325 0.0 0.0 0.00 0.00 0.00 99 1021.8
20260905070900 67 325 0.0 0.0 0.00 0.00 0.00 99 1021.9
20260905070357 67 325 0.0 0.0 0.00 0.00 0.00 99 1021.7
20260905065856 67 325 0.0 0.0 0.00 0.00 0.00 99 1021.8
20260905065354 67 325 0.0 0.0 0.00 0.00 0.00 99 1021.9
20260905064850 67 325 0.0 0.0 0.00 0.00 0.00 99 1021.9
20260905064345 67 325 0.0 0.0 0.00 0.00 0.00 99 1022.0
20260905063844 67 325 0.0 0.0 0.00 0.00 0.00 99 1022.0
20260905063340 67 325 0.0 0.0 0.00 0.00 0.00 98 1021.9
20260905062837 67 324 0.0 0.0 0.00 0.00 0.00 98 1022.0
20260905062336 67 324 0.0 0.0 0.00 0.00 0.00 98 1021.8
20260905061832 67 324 0.0 0.0 0.00 0.00 0.00 98 1021.9
20260905061331 68 324 0.0 0.0 0.00 0.00 0.00 98 1022.0
20260905060826 68 324 0.0 0.0 0.00 0.00 0.00 98 1022.0
20260905060322 68 325 0.0 0.0 0.00 0.00 0.00 98 1022.1
20260905055816 68 325 0.0 0.0 0.00 0.00 0.00 98 1022.3
20260905055311 68 325 0.0 0.0 0.00 0.00 0.00 98 1022.3
20260905054810 68 325 0.0 0.0 0.00 0.00 0.00 98 1022.4
20260905054307 68 325 0.0 0.0 0.00 0.00 0.00 98 1022.5
20260905053806 68 325 0.0 0.0 0.00 0.00 0.00 98 1022.6
20260905053301 68 325 0.0 0.0 0.00 0.00 0.00 98 1022.5
20260905052756 68 325 0.0 0.0 0.00 0.00 0.00 98 1022.4
20260905052256 68 325 0.0 0.0 0.00 0.00 0.00 98 1022.4
20260905051755 68 325 0.0 0.0 0.00 0.00 0.00 98 1022.4
20260905051252 68 325 0.0 0.0 0.00 0.00 0.00 98 1022.5
20260905050749 68 325 0.0 0.0 0.00 0.00 0.00 98 1022.4
20260905050245 68 325 0.0 0.0 0.00 0.00 0.00 98 1022.4
20260905045745 68 325 0.0 0.0 0.00 0.00 0.00 98 1022.5
20260905045240 68 325 0.0 0.0 0.00 0.00 0.00 98 1022.6
20260905044735 68 325 0.0 0.0 0.00 0.00 0.00 98 1022.5
20260905044230 68 325 0.0 0.0 0.00 0.00 0.00 98 1022.6
20260905043729 68 325 0.0 0.0 0.00 0.00 0.00 98 1022.8
20260905043224 68 325 0.0 0.0 0.00 0.00 0.00 98 1022.6
20260905042719 68 325 0.0 0.0 0.00 0.00 0.00 97 1022.6
20260905042218 68 325 0.0 0.0 0.00 0.00 0.00 97 1022.8
20260905041714 68 325 0.0 0.0 0.00 0.00 0.00 97 1022.6
20260905041209 68 325 0.0 0.0 0.00 0.00 0.00 97 1022.8
20260905040704 68 325 0.0 0.0 0.00 0.00 0.00 97 1022.8
20260905040203 68 325 0.0 0.0 0.00 0.00 0.00 97 1022.6